Time,TemperatureF,DewpointF,PressureIn,WindDirection,WindDirectionDegrees,WindSpeedMPH,WindSpeedGustMPH,Humidity,HourlyPrecipIn,Conditions,Clouds,dailyrainin,SoftwareType,DateUTC
2013-04-29 00:05:00,45.5,39.0,30.18,North,3,0.0,0.0,77,0.00,,,0.00,vanprod,2013-04-29 04:05:00,
2013-04-29 00:15:00,45.2,39.0,30.19,North,0,0.0,0.0,78,0.00,,,0.00,vanprod,2013-04-29 04:15:00,
2013-04-29 00:25:00,45.1,39.0,30.19,North,4,0.0,0.0,80,0.00,,,0.00,vanprod,2013-04-29 04:25:00,
2013-04-29 00:35:00,44.8,39.0,30.19,North,3,0.0,0.0,80,0.00,,,0.00,vanprod,2013-04-29 04:35:00,
2013-04-29 00:45:00,44.6,39.0,30.19,North,4,0.0,0.0,81,0.00,,,0.00,vanprod,2013-04-29 04:45:00,
2013-04-29 00:55:00,44.3,39.0,30.19,North,4,0.0,0.0,81,0.00,,,0.00,vanprod,2013-04-29 04:55:00,
2013-04-29 01:05:00,44.2,39.0,30.19,North,1,0.0,0.0,82,0.00,,,0.00,vanprod,2013-04-29 05:05:00,
2013-04-29 01:15:00,44.1,39.0,30.19,North,3,0.0,0.0,83,0.00,,,0.00,vanprod,2013-04-29 05:15:00,
2013-04-29 01:25:00,43.9,39.0,30.19,North,3,0.0,0.0,84,0.00,,,0.00,vanprod,2013-04-29 05:25:00,
2013-04-29 01:35:00,43.8,40.0,30.18,North,3,0.0,0.0,85,0.00,,,0.00,vanprod,2013-04-29 05:35:00,
2013-04-29 01:45:00,43.5,39.0,30.18,North,8,0.0,0.0,85,0.00,,,0.00,vanprod,2013-04-29 05:45:00,
2013-04-29 01:55:00,43.3,39.0,30.18,North,3,0.0,0.0,85,0.00,,,0.00,vanprod,2013-04-29 05:55:00,
2013-04-29 02:05:00,43.1,39.0,30.18,North,4,0.0,0.0,85,0.00,,,0.00,vanprod,2013-04-29 06:05:00,
2013-04-29 02:15:00,42.9,39.0,30.18,North,4,0.0,0.0,85,0.00,,,0.00,vanprod,2013-04-29 06:15:00,
2013-04-29 02:25:00,42.8,39.0,30.18,North,4,0.0,0.0,85,0.00,,,0.00,vanprod,2013-04-29 06:25:00,
2013-04-29 02:35:00,42.5,39.0,30.18,North,3,0.0,0.0,86,0.00,,,0.00,vanprod,2013-04-29 06:35:00,
2013-04-29 02:45:00,42.3,38.0,30.17,North,4,0.0,0.0,86,0.00,,,0.00,vanprod,2013-04-29 06:45:00,
2013-04-29 02:55:00,42.1,38.0,30.17,North,3,0.0,0.0,87,0.00,,,0.00,vanprod,2013-04-29 06:55:00,
2013-04-29 03:05:00,41.9,38.0,30.17,North,4,0.0,0.0,87,0.00,,,0.00,vanprod,2013-04-29 07:05:00,
2013-04-29 03:15:00,41.8,38.0,30.17,North,3,0.0,0.0,87,0.00,,,0.00,vanprod,2013-04-29 07:15:00,
2013-04-29 03:25:00,41.5,38.0,30.17,North,1,0.0,0.0,87,0.00,,,0.00,vanprod,2013-04-29 07:25:00,
2013-04-29 03:35:00,41.3,38.0,30.16,North,7,0.0,0.0,87,0.00,,,0.00,vanprod,2013-04-29 07:35:00,
2013-04-29 03:45:00,41.1,37.0,30.16,North,3,0.0,0.0,87,0.00,,,0.00,vanprod,2013-04-29 07:45:00,
2013-04-29 03:55:00,40.8,37.0,30.16,North,3,0.0,0.0,87,0.00,,,0.00,vanprod,2013-04-29 07:55:00,
2013-04-29 04:05:00,40.8,37.0,30.17,North,4,0.0,0.0,87,0.00,,,0.00,vanprod,2013-04-29 08:05:00,
2013-04-29 04:15:00,40.6,37.0,30.17,North,4,0.0,0.0,88,0.00,,,0.00,vanprod,2013-04-29 08:15:00,
2013-04-29 04:25:00,40.5,37.0,30.17,North,3,0.0,0.0,88,0.00,,,0.00,vanprod,2013-04-29 08:25:00,
2013-04-29 04:35:00,40.3,37.0,30.17,North,3,0.0,0.0,88,0.00,,,0.00,vanprod,2013-04-29 08:35:00,
2013-04-29 04:45:00,40.2,37.0,30.17,North,3,0.0,0.0,88,0.00,,,0.00,vanprod,2013-04-29 08:45:00,
2013-04-29 04:55:00,40.1,37.0,30.17,North,4,0.0,0.0,88,0.00,,,0.00,vanprod,2013-04-29 08:55:00,
2013-04-29 05:05:00,39.9,37.0,30.17,North,1,0.0,0.0,88,0.00,,,0.00,vanprod,2013-04-29 09:05:00,
2013-04-29 05:15:00,39.6,36.0,30.17,North,4,0.0,0.0,88,0.00,,,0.00,vanprod,2013-04-29 09:15:00,
2013-04-29 05:25:00,39.5,36.0,30.17,North,3,0.0,0.0,89,0.00,,,0.00,vanprod,2013-04-29 09:25:00,
2013-04-29 05:35:00,39.5,37.0,30.18,North,4,0.0,0.0,90,0.00,,,0.00,vanprod,2013-04-29 09:35:00,
2013-04-29 05:45:00,39.5,37.0,30.18,North,3,0.0,0.0,90,0.00,,,0.00,vanprod,2013-04-29 09:45:00,
2013-04-29 05:55:00,39.5,37.0,30.18,North,3,0.0,0.0,90,0.00,,,0.00,vanprod,2013-04-29 09:55:00,
2013-04-29 06:05:00,39.5,37.0,30.18,North,4,0.0,0.0,90,0.00,,,0.00,vanprod,2013-04-29 10:05:00,
2013-04-29 06:15:00,39.6,37.0,30.18,North,1,0.0,0.0,91,0.00,,,0.00,vanprod,2013-04-29 10:15:00,
2013-04-29 06:25:00,39.9,37.0,30.18,North,4,0.0,0.0,91,0.00,,,0.00,vanprod,2013-04-29 10:25:00,
2013-04-29 06:35:00,40.3,38.0,30.19,North,4,0.0,0.0,92,0.00,,,0.00,vanprod,2013-04-29 10:35:00,
2013-04-29 06:45:00,40.6,38.0,30.19,North,1,0.0,0.0,92,0.00,,,0.00,vanprod,2013-04-29 10:45:00,
2013-04-29 06:55:00,41.1,39.0,30.19,North,4,0.0,0.0,92,0.00,,,0.00,vanprod,2013-04-29 10:55:00,
2013-04-29 07:05:00,41.6,39.0,30.19,North,1,0.0,0.0,91,0.00,,,0.00,vanprod,2013-04-29 11:05:00,
2013-04-29 07:15:00,42.2,39.0,30.20,North,4,0.0,0.0,89,0.00,,,0.00,vanprod,2013-04-29 11:15:00,
2013-04-29 07:25:00,42.6,39.0,30.20,North,3,0.0,0.0,88,0.00,,,0.00,vanprod,2013-04-29 11:25:00,
2013-04-29 07:35:00,43.1,39.0,30.20,North,3,0.0,0.0,86,0.00,,,0.00,vanprod,2013-04-29 11:35:00,
2013-04-29 07:45:00,43.6,39.0,30.20,North,0,0.0,0.0,84,0.00,,,0.00,vanprod,2013-04-29 11:45:00,
2013-04-29 07:55:00,44.1,39.0,30.20,North,6,0.0,0.0,82,0.00,,,0.00,vanprod,2013-04-29 11:55:00,
2013-04-29 08:05:00,44.9,39.0,30.20,North,1,0.0,0.0,81,0.00,,,0.00,vanprod,2013-04-29 12:05:00,
2013-04-29 08:15:00,45.7,40.0,30.20,North,4,0.0,0.0,79,0.00,,,0.00,vanprod,2013-04-29 12:15:00,
2013-04-29 08:25:00,46.5,40.0,30.20,North,4,0.0,0.0,77,0.00,,,0.00,vanprod,2013-04-29 12:25:00,
2013-04-29 08:35:00,47.4,41.0,30.20,North,4,0.0,0.0,77,0.00,,,0.00,vanprod,2013-04-29 12:35:00,
2013-04-29 08:45:00,48.2,41.0,30.20,North,4,0.0,0.0,76,0.00,,,0.00,vanprod,2013-04-29 12:45:00,
2013-04-29 08:55:00,49.1,42.0,30.19,North,4,0.0,0.0,76,0.00,,,0.00,vanprod,2013-04-29 12:55:00,
2013-04-29 09:05:00,49.8,42.0,30.19,North,3,0.0,0.0,75,0.00,,,0.00,vanprod,2013-04-29 13:05:00,
2013-04-29 09:15:00,50.5,43.0,30.19,North,3,0.0,0.0,75,0.00,,,0.00,vanprod,2013-04-29 13:15:00,
2013-04-29 09:25:00,51.6,43.0,30.19,North,4,0.0,0.0,72,0.00,,,0.00,vanprod,2013-04-29 13:25:00,
2013-04-29 09:35:00,52.6,44.0,30.19,North,6,0.0,0.0,72,0.00,,,0.00,vanprod,2013-04-29 13:35:00,
2013-04-29 09:45:00,53.8,44.0,30.19,North,6,0.0,0.0,69,0.00,,,0.00,vanprod,2013-04-29 13:45:00,
2013-04-29 09:55:00,54.7,44.0,30.19,North,6,0.0,0.0,68,0.00,,,0.00,vanprod,2013-04-29 13:55:00,
2013-04-29 10:05:00,55.9,45.0,30.19,North,6,0.0,0.0,67,0.00,,,0.00,vanprod,2013-04-29 14:05:00,
2013-04-29 10:15:00,57.0,45.0,30.19,North,4,0.0,0.0,63,0.00,,,0.00,vanprod,2013-04-29 14:15:00,
2013-04-29 10:25:00,58.1,45.0,30.19,North,4,0.0,1.0,62,0.00,,,0.00,vanprod,2013-04-29 14:25:00,
2013-04-29 10:35:00,59.3,45.0,30.19,North,0,0.0,0.0,59,0.00,,,0.00,vanprod,2013-04-29 14:35:00,
2013-04-29 10:45:00,60.2,45.0,30.18,North,3,0.0,0.0,57,0.00,,,0.00,vanprod,2013-04-29 14:45:00,
2013-04-29 10:55:00,61.0,45.0,30.18,North,6,0.0,0.0,55,0.00,,,0.00,vanprod,2013-04-29 14:55:00,
2013-04-29 11:05:00,62.0,46.0,30.18,North,6,0.0,1.0,55,0.00,,,0.00,vanprod,2013-04-29 15:05:00,
2013-04-29 11:15:00,62.6,44.0,30.18,North,1,0.0,1.0,51,0.00,,,0.00,vanprod,2013-04-29 15:15:00,
2013-04-29 11:25:00,63.4,44.0,30.18,North,1,0.0,0.0,50,0.00,,,0.00,vanprod,2013-04-29 15:25:00,
2013-04-29 11:35:00,64.2,45.0,30.17,North,1,0.0,0.0,49,0.00,,,0.00,vanprod,2013-04-29 15:35:00,
2013-04-29 11:45:00,65.2,46.0,30.17,North,3,1.0,1.0,49,0.00,,,0.00,vanprod,2013-04-29 15:45:00,
2013-04-29 11:55:00,66.0,47.0,30.17,North,1,0.0,0.0,50,0.00,,,0.00,vanprod,2013-04-29 15:55:00,
2013-04-29 12:05:00,66.1,46.0,30.16,North,7,1.0,1.0,48,0.00,,,0.00,vanprod,2013-04-29 16:05:00,
2013-04-29 12:15:00,66.6,46.0,30.16,North,3,1.0,0.0,47,0.00,,,0.00,vanprod,2013-04-29 16:15:00,
2013-04-29 12:25:00,67.3,46.0,30.16,North,3,1.0,2.0,47,0.00,,,0.00,vanprod,2013-04-29 16:25:00,
2013-04-29 12:35:00,67.4,46.0,30.16,North,4,1.0,2.0,47,0.00,,,0.00,vanprod,2013-04-29 16:35:00,
2013-04-29 12:45:00,67.1,47.0,30.15,North,0,4.0,4.0,48,0.00,,,0.00,vanprod,2013-04-29 16:45:00,
2013-04-29 12:55:00,67.4,49.0,30.15,North,4,2.0,2.0,51,0.00,,,0.00,vanprod,2013-04-29 16:55:00,
2013-04-29 13:05:00,67.4,48.0,30.15,North,6,3.0,3.0,50,0.00,,,0.00,vanprod,2013-04-29 17:05:00,
2013-04-29 13:15:00,67.4,48.0,30.15,North,1,3.0,3.0,49,0.00,,,0.00,vanprod,2013-04-29 17:15:00,
2013-04-29 13:25:00,67.3,48.0,30.15,North,4,3.0,3.0,49,0.00,,,0.00,vanprod,2013-04-29 17:25:00,
2013-04-29 13:35:00,67.6,47.0,30.14,North,4,3.0,4.0,48,0.00,,,0.00,vanprod,2013-04-29 17:35:00,
2013-04-29 13:45:00,67.8,46.0,30.14,North,4,2.0,2.0,46,0.00,,,0.00,vanprod,2013-04-29 17:45:00,
2013-04-29 13:55:00,67.4,45.0,30.14,North,3,2.0,2.0,45,0.00,,,0.00,vanprod,2013-04-29 17:55:00,
2013-04-29 14:05:00,67.8,45.0,30.14,North,1,3.0,3.0,44,0.00,,,0.00,vanprod,2013-04-29 18:05:00,
2013-04-29 14:15:00,67.9,45.0,30.14,North,1,3.0,3.0,44,0.00,,,0.00,vanprod,2013-04-29 18:15:00,
2013-04-29 14:25:00,67.8,44.0,30.14,North,3,3.0,4.0,43,0.00,,,0.00,vanprod,2013-04-29 18:25:00,
2013-04-29 14:35:00,68.1,43.0,30.13,North,3,2.0,2.0,41,0.00,,,0.00,vanprod,2013-04-29 18:35:00,
2013-04-29 14:45:00,68.4,44.0,30.13,North,4,2.0,2.0,41,0.00,,,0.00,vanprod,2013-04-29 18:45:00,
2013-04-29 14:55:00,67.6,43.0,30.13,North,6,3.0,3.0,41,0.00,,,0.00,vanprod,2013-04-29 18:55:00,
2013-04-29 15:05:00,67.1,43.0,30.13,North,4,2.0,2.0,42,0.00,,,0.00,vanprod,2013-04-29 19:05:00,
2013-04-29 15:15:00,67.1,44.0,30.13,North,1,2.0,2.0,43,0.00,,,0.00,vanprod,2013-04-29 19:15:00,
2013-04-29 15:25:00,66.1,42.0,30.12,North,4,3.0,3.0,42,0.00,,,0.00,vanprod,2013-04-29 19:25:00,
2013-04-29 15:35:00,66.0,43.0,30.12,North,4,3.0,3.0,43,0.00,,,0.00,vanprod,2013-04-29 19:35:00,
2013-04-29 15:45:00,65.5,42.0,30.12,North,4,3.0,3.0,43,0.00,,,0.00,vanprod,2013-04-29 19:45:00,
2013-04-29 15:55:00,65.8,42.0,30.12,North,1,2.0,5.0,42,0.00,,,0.00,vanprod,2013-04-29 19:55:00,
2013-04-29 16:05:00,65.5,39.0,30.11,North,7,3.0,3.0,38,0.00,,,0.00,vanprod,2013-04-29 20:05:00,
2013-04-29 16:15:00,65.2,39.0,30.11,North,3,3.0,6.0,39,0.00,,,0.00,vanprod,2013-04-29 20:15:00,
2013-04-29 16:25:00,64.3,38.0,30.11,North,3,4.0,4.0,38,0.00,,,0.00,vanprod,2013-04-29 20:25:00,
2013-04-29 16:35:00,63.7,38.0,30.11,North,3,4.0,4.0,39,0.00,,,0.00,vanprod,2013-04-29 20:35:00,
2013-04-29 16:45:00,63.2,39.0,30.11,North,3,3.0,3.0,41,0.00,,,0.00,vanprod,2013-04-29 20:45:00,
2013-04-29 16:55:00,63.1,39.0,30.12,North,7,3.0,6.0,41,0.00,,,0.00,vanprod,2013-04-29 20:55:00,
2013-04-29 17:05:00,62.6,39.0,30.12,North,1,4.0,4.0,42,0.00,,,0.00,vanprod,2013-04-29 21:05:00,
2013-04-29 17:15:00,62.4,37.0,30.12,North,3,3.0,4.0,39,0.00,,,0.00,vanprod,2013-04-29 21:15:00,
2013-04-29 17:25:00,62.4,37.0,30.12,North,3,2.0,0.0,39,0.00,,,0.00,vanprod,2013-04-29 21:25:00,
2013-04-29 17:35:00,62.0,34.0,30.12,North,6,2.0,2.0,35,0.00,,,0.00,vanprod,2013-04-29 21:35:00,
2013-04-29 17:45:00,62.0,35.0,30.12,North,3,2.0,0.0,36,0.00,,,0.00,vanprod,2013-04-29 21:45:00,
2013-04-29 17:55:00,61.8,35.0,30.12,North,4,2.0,6.0,37,0.00,,,0.00,vanprod,2013-04-29 21:55:00,
2013-04-29 18:05:00,61.5,33.0,30.12,North,3,2.0,2.0,35,0.00,,,0.00,vanprod,2013-04-29 22:05:00,
2013-04-29 18:15:00,61.2,34.0,30.12,North,1,3.0,3.0,36,0.00,,,0.00,vanprod,2013-04-29 22:15:00,
2013-04-29 18:25:00,60.9,36.0,30.12,North,3,2.0,3.0,39,0.00,,,0.00,vanprod,2013-04-29 22:25:00,
2013-04-29 18:35:00,60.5,35.0,30.12,North,3,1.0,0.0,38,0.00,,,0.00,vanprod,2013-04-29 22:35:00,
2013-04-29 18:45:00,60.2,34.0,30.12,North,4,2.0,3.0,38,0.00,,,0.00,vanprod,2013-04-29 22:45:00,
2013-04-29 18:55:00,59.9,35.0,30.13,North,4,1.0,0.0,40,0.00,,,0.00,vanprod,2013-04-29 22:55:00,
2013-04-29 19:05:00,59.6,36.0,30.13,North,4,0.0,0.0,42,0.00,,,0.00,vanprod,2013-04-29 23:05:00,
2013-04-29 19:15:00,59.2,36.0,30.13,North,4,0.0,0.0,42,0.00,,,0.00,vanprod,2013-04-29 23:15:00,
2013-04-29 19:25:00,58.6,37.0,30.13,North,3,0.0,0.0,44,0.00,,,0.00,vanprod,2013-04-29 23:25:00,
2013-04-29 19:35:00,58.0,37.0,30.13,North,4,0.0,0.0,45,0.00,,,0.00,vanprod,2013-04-29 23:35:00,
2013-04-29 19:45:00,57.3,37.0,30.13,North,7,0.0,0.0,47,0.00,,,0.00,vanprod,2013-04-29 23:45:00,
2013-04-29 19:55:00,56.7,38.0,30.13,North,7,0.0,0.0,49,0.00,,,0.00,vanprod,2013-04-29 23:55:00,
2013-04-29 20:05:00,56.2,37.0,30.13,North,4,0.0,0.0,49,0.00,,,0.00,vanprod,2013-04-30 00:05:00,
2013-04-29 20:15:00,55.4,37.0,30.13,North,6,0.0,0.0,50,0.00,,,0.00,vanprod,2013-04-30 00:15:00,
2013-04-29 20:25:00,54.7,36.0,30.14,North,6,0.0,0.0,50,0.00,,,0.00,vanprod,2013-04-30 00:25:00,
2013-04-29 20:35:00,53.9,37.0,30.14,North,6,0.0,0.0,52,0.00,,,0.00,vanprod,2013-04-30 00:35:00,
2013-04-29 20:45:00,53.3,37.0,30.14,North,4,0.0,0.0,54,0.00,,,0.00,vanprod,2013-04-30 00:45:00,
2013-04-29 20:55:00,52.8,38.0,30.15,North,6,0.0,0.0,56,0.00,,,0.00,vanprod,2013-04-30 00:55:00,
2013-04-29 21:05:00,52.2,37.0,30.16,North,4,0.0,0.0,57,0.00,,,0.00,vanprod,2013-04-30 01:05:00,
2013-04-29 21:15:00,51.6,37.0,30.16,North,6,0.0,0.0,58,0.00,,,0.00,vanprod,2013-04-30 01:15:00,
2013-04-29 21:25:00,51.1,37.0,30.16,North,7,0.0,0.0,58,0.00,,,0.00,vanprod,2013-04-30 01:25:00,
2013-04-29 21:35:00,50.7,37.0,30.16,North,6,0.0,0.0,59,0.00,,,0.00,vanprod,2013-04-30 01:35:00,
2013-04-29 21:45:00,50.2,37.0,30.16,North,6,0.0,0.0,61,0.00,,,0.00,vanprod,2013-04-30 01:45:00,
2013-04-29 21:55:00,49.8,37.0,30.16,North,7,0.0,0.0,62,0.00,,,0.00,vanprod,2013-04-30 01:55:00,
2013-04-29 22:05:00,49.5,38.0,30.16,North,6,0.0,0.0,64,0.00,,,0.00,vanprod,2013-04-30 02:05:00,
2013-04-29 22:15:00,49.4,39.0,30.16,North,4,0.0,0.0,67,0.00,,,0.00,vanprod,2013-04-30 02:15:00,
2013-04-29 22:25:00,49.2,38.0,30.16,North,3,0.0,0.0,66,0.00,,,0.00,vanprod,2013-04-30 02:25:00,
2013-04-29 22:35:00,48.8,38.0,30.17,North,6,0.0,0.0,65,0.00,,,0.00,vanprod,2013-04-30 02:35:00,
2013-04-29 22:45:00,48.5,37.0,30.17,North,4,0.0,0.0,65,0.00,,,0.00,vanprod,2013-04-30 02:45:00,
2013-04-29 22:55:00,48.2,37.0,30.17,North,6,0.0,0.0,66,0.00,,,0.00,vanprod,2013-04-30 02:55:00,
2013-04-29 23:05:00,47.9,37.0,30.17,North,4,0.0,0.0,66,0.00,,,0.00,vanprod,2013-04-30 03:05:00,
2013-04-29 23:15:00,47.6,37.0,30.17,North,10,0.0,0.0,67,0.00,,,0.00,vanprod,2013-04-30 03:15:00,
2013-04-29 23:25:00,47.1,38.0,30.17,North,4,0.0,0.0,69,0.00,,,0.00,vanprod,2013-04-30 03:25:00,
2013-04-29 23:35:00,46.8,38.0,30.18,North,4,0.0,0.0,70,0.00,,,0.00,vanprod,2013-04-30 03:35:00,
2013-04-29 23:45:00,46.4,37.0,30.18,North,6,0.0,0.0,70,0.00,,,0.00,vanprod,2013-04-30 03:45:00,
2013-04-29 23:55:00,46.0,37.0,30.18,North,6,0.0,0.0,70,0.00,,,0.00,vanprod,2013-04-30 03:55:00,